Wind_Speed
11 13 11 10 9 10 11 11 12 12 10 9 7 6 4 8 16 19 19 17 16 16 16 16 16 17 18 16 13 11 9 8 8 7 5 3 2 1 0 1 1 1 1 1 2 2 3 3 4 3 2 2 2 2 2 3 3 3 3 2 2 3 2 1 1 1 2 3 4 5 6 6 7 8 9 11 12 14 16 18 19 19 18 16 15
13 14 11 12 13 13 13 12 13 12 10 8 6 5 4 6 14 18 18 16 15 14 15 15 14 15 17 17 15 13 11 10 9 8 6 4 3 2 2 2 1 0 0 1 1 2 2 3 3 3 2 2 2 2 1 1 1 3 4 3 2 3 3 3 2 1 1 1 2 4 5 5 6 7 8 9 10 12 14 16 17 18 17 16 15
13 14 12 14 15 16 16 14 13 12 10 8 6 4 1 4 10 14 14 13 12 11 11 12 13 14 15 16 16 15 13 12 11 9 8 6 5 5 4 4 3 2 1 0 1 2 2 2 2 2 2 2 2 2 1 1 1 2 4 4 4 4 4 4 4 3 1 1 1 2 3 4 4 5 6 7 8 10 12 14 15 16 16 15 14
15 15 14 14 15 15 16 16 14 12 11 9 7 4 3 5 10 11 11 11 9 9 9 10 11 13 15 16 17 17 16 15 13 11 10 8 7 7 6 5 4 3 2 1 1 2 3 3 3 3 3 2 2 1 0 1 1 2 3 4 5 5 5 5 5 4 3 2 1 1 1 3 3 3 4 6 7 8 9 11 13 15 15 15 14
16 15 13 12 11 12 15 18 15 12 12 10 9 7 5 7 10 12 11 11 10 9 9 9 10 11 14 15 17 18 19 18 16 14 12 10 9 8 7 6 5 4 3 2 2 2 2 4 4 4 4 4 2 1 1 1 0 1 2 3 5 6 6 6 6 5 4 3 2 2 1 1 2 2 3 4 5 6 7 9 11 13 14 14 14
15 14 12 9 8 9 13 17 15 13 12 11 11 10 8 8 10 11 11 11 11 9 9 10 10 10 13 15 16 19 21 20 18 15 13 12 10 9 8 7 6 5 5 4 4 3 2 3 4 4 5 5 5 3 0 1 1 0 2 2 4 6 7 7 6 6 5 5 4 3 3 2 2 2 1 2 3 4 5 7 9 11 13 13 13
12 12 12 10 7 7 11 16 17 16 13 11 12 11 10 10 10 10 10 10 11 10 9 10 10 10 12 13 14 18 21 20 18 15 13 11 10 9 8 7 6 6 6 6 5 4 3 3 4 4 4 5 6 5 3 0 1 1 1 2 2 5 7 7 7 6 6 7 6 6 4 3 3 2 2 2 1 2 3 5 7 9 11 11 12
10 11 11 9 8 8 11 16 18 16 16 15 14 14 13 12 11 11 11 11 12 11 11 11 11 11 11 12 13 14 17 17 15 12 10 9 8 8 7 7 7 6 6 6 6 6 5 4 4 4 3 4 5 5 4 2 1 2 2 0 0 1 4 5 7 7 7 7 7 7 6 4 4 4 3 3 2 1 1 3 4 7 9 10 10
9 10 10 8 8 9 11 14 16 18 19 19 17 16 15 13 13 13 13 14 14 14 14 14 12 12 12 12 13 13 14 13 12 11 9 8 8 7 7 6 6 6 6 5 5 6 6 5 5 5 4 3 3 4 4 3 2 2 3 2 2 3 1 3 5 7 7 8 8 7 7 6 5 5 4 4 3 2 1 1 3 5 6 8 9
4 5 6 6 7 8 9 10 13 17 20 20 20 18 17 16 14 14 16 16 15 16 17 16 14 14 14 14 14 14 14 13 13 12 11 9 8 8 8 7 6 6 6 6 6 6 7 7 7 7 6 4 3 3 3 3 3 3 4 4 3 4 4 4 4 5 7 8 9 7 6 7 7 6 5 5 5 4 2 2 2 4 5 7 8
3 4 4 5 5 6 9 9 11 14 16 19 20 18 17 16 14 14 17 18 17 18 18 19 18 16 16 16 15 15 16 15 15 14 14 12 11 11 10 9 8 7 6 6 6 6 7 8 8 9 9 7 6 4 3 3 4 4 4 4 4 5 6 7 7 5 5 7 10 9 6 6 8 7 6 6 6 5 4 3 3 3 5 6 7
6 6 5 5 5 6 8 8 8 9 10 12 15 16 16 15 12 10 15 17 16 18 19 19 19 16 16 16 16 16 17 18 17 17 16 15 14 13 12 11 9 8 7 7 7 6 7 7 9 10 11 10 8 6 5 5 4 5 5 5 4 5 7 8 8 7 5 6 10 12 8 6 8 8 7 7 6 6 5 5 4 4 4 5 6
7 6 6 6 6 7 8 8 7 7 9 9 9 12 13 15 14 11 13 14 12 15 17 15 14 14 15 17 17 16 16 17 17 17 17 18 17 16 14 13 11 9 8 9 9 9 9 9 9 9 11 12 11 9 8 7 5 5 6 6 6 6 6 7 8 7 5 5 8 13 11 7 6 6 6 7 8 7 6 6 5 5 5 5 6
6 5 5 5 6 6 7 7 7 7 9 10 8 8 9 13 15 15 16 15 12 14 14 13 13 12 12 14 15 15 15 16 16 15 16 17 17 17 16 15 13 12 11 11 11 11 11 11 11 10 10 12 12 11 10 8 6 5 6 8 8 7 7 8 8 7 6 6 7 11 13 10 7 5 5 6 8 8 7 6 6 6 5 6 6
4 4 4 4 4 4 4 5 5 5 6 7 7 6 5 7 11 15 19 17 16 15 15 16 14 11 10 11 12 13 14 15 15 13 14 15 16 18 17 17 16 15 14 14 14 13 13 13 13 13 12 11 11 11 9 8 7 7 8 9 9 9 9 9 9 8 8 8 8 9 13 14 11 8 6 6 7 8 8 7 7 6 6 6 7
1 2 3 3 3 3 3 3 3 3 4 4 4 4 4 4 5 10 15 16 16 16 17 18 16 13 11 9 10 11 11 13 13 13 13 13 13 16 16 16 17 17 17 17 16 15 15 14 14 13 12 12 12 12 12 10 9 9 10 10 10 10 10 10 10 9 9 9 10 11 13 15 15 12 10 8 7 7 8 8 8 7 6 6 7
4 2 1 1 2 2 3 3 3 3 4 3 3 4 4 3 3 5 7 9 10 12 15 16 16 16 13 11 9 9 9 11 12 12 12 12 12 13 14 14 14 16 17 17 15 14 14 14 14 14 13 13 14 14 14 14 13 13 12 11 10 9 9 10 10 10 8 9 10 12 14 16 17 16 14 12 10 8 8 8 9 8 7 7 7
8 7 6 4 3 3 3 3 2 2 3 3 3 4 4 4 5 5 5 5 6 8 10 12 14 15 15 15 13 11 11 11 11 11 14 15 13 11 11 11 10 10 12 13 13 13 11 10 10 11 12 13 14 15 15 15 15 15 13 11 10 9 9 9 11 11 10 9 10 12 14 16 17 18 17 15 13 12 10 9 9 9 9 8 8
10 10 10 8 7 6 5 4 3 2 2 2 2 3 3 4 5 5 5 4 5 5 6 7 7 8 11 14 14 13 13 13 13 13 14 15 13 11 11 11 9 8 8 9 11 12 11 10 10 9 9 10 11 14 15 15 15 14 13 12 11 10 10 9 10 12 12 11 10 11 14 16 17 18 18 18 17 15 13 12 11 10 11 10 9
11 11 11 11 10 8 7 6 5 4 3 2 2 2 2 3 3 4 4 5 5 5 5 5 5 6 8 9 10 11 10 10 10 11 12 13 15 16 15 14 13 13 13 13 13 14 15 15 15 14 12 11 11 12 13 14 14 13 12 11 11 11 11 11 10 12 14 13 11 10 12 16 17 18 19 19 18 18 17 15 13 12 12 12 11
10 11 11 11 10 10 9 8 7 6 5 4 3 2 1 1 2 3 4 5 6 6 5 6 6 6 6 7 8 8 7 7 8 9 9 9 11 12 14 16 17 17 17 17 17 17 18 17 17 17 16 15 14 14 13 12 12 12 10 9 9 10 10 10 11 13 14 15 15 12 11 14 17 19 20 20 19 19 19 18 16 15 15 14 13
8 9 10 10 10 9 8 7 6 6 5 4 3 3 2 1 1 2 3 4 5 6 6 6 7 7 8 8 8 8 8 8 8 9 9 8 9 10 11 13 16 18 19 19 18 18 18 18 17 17 17 16 15 15 14 13 12 12 10 7 6 8 8 9 10 13 16 15 16 16 14 14 17 19 20 20 20 20 20 20 19 18 18 16 15
5 7 8 8 8 7 6 5 5 4 4 4 3 3 3 3 2 2 1 2 4 5 6 7 7 8 8 9 8 8 9 10 10 10 10 9 10 11 12 12 14 17 18 19 20 19 19 19 17 16 16 16 15 15 14 14 15 15 14 10 7 7 7 8 9 10 15 15 15 16 16 16 16 19 20 19 20 21 22 22 23 22 21 19 17
4 4 5 6 6 5 5 4 3 3 3 3 4 4 4 4 4 4 3 2 2 3 5 7 8 9 9 9 8 8 9 10 11 11 11 11 11 12 12 13 15 16 16 19 21 20 20 19 18 17 16 16 15 15 14 15 15 16 17 16 13 10 9 9 8 6 10 13 14 15 17 18 18 19 21 20 19 20 22 22 22 23 23 22 19
4 3 4 4 4 4 3 2 2 2 2 3 3 4 4 4 4 4 4 4 4 4 4 5 7 8 9 9 9 10 11 11 12 13 13 14 15 15 15 15 17 18 18 20 20 20 19 17 15 16 16 15 14 15 15 15 15 16 17 19 19 18 16 13 10 9 9 11 12 13 15 18 20 21 23 24 21 19 21 22 21 20 22 24 22
4 4 4 4 3 3 3 1 1 0 1 2 3 3 4 4 4 4 5 5 5 6 6 6 6 6 7 8 10 11 12 13 14 15 15 16 17 18 20 20 21 21 20 18 17 18 18 15 15 16 16 16 16 16 17 16 15 14 15 18 21 23 21 16 12 12 12 12 13 13 13 16 20 21 22 25 25 21 21 23 22 21 21 23 24
5 5 5 5 4 3 3 2 1 1 1 1 2 3 3 4 4 5 6 6 7 8 8 8 8 8 7 7 8 9 10 12 13 14 16 17 18 18 19 20 20 20 19 18 16 17 17 16 16 17 15 15 17 19 20 19 18 16 14 14 16 19 19 17 15 14 13 14 14 15 15 16 18 21 22 24 25 24 23 23 23 22 21 22 24
7 6 6 6 5 5 4 3 3 2 2 2 2 3 4 4 5 6 7 8 9 10 11 11 11 11 10 10 10 10 10 11 11 12 14 15 16 18 18 17 17 17 18 18 18 16 14 14 13 13 11 12 14 15 16 16 16 16 15 14 14 14 15 15 15 14 14 13 14 16 17 17 18 20 23 25 26 25 25 25 24 23 21 21 23
8 8 7 7 7 7 6 5 5 4 4 4 4 4 5 6 7 8 9 9 10 11 12 12 12 13 12 12 12 12 12 12 12 13 13 14 15 16 17 17 17 17 16 19 21 17 14 14 13 11 12 12 12 11 11 12 13 14 15 15 16 16 15 14 15 15 14 13 13 16 18 18 18 20 23 26 27 27 26 27 27 25 22 20 22
10 9 9 9 9 9 8 7 6 6 5 5 5 5 5 6 7 9 10 11 12 12 13 13 13 13 14 13 13 13 14 13 13 14 13 14 14 14 16 16 16 17 17 20 25 23 17 16 14 11 11 11 11 11 11 12 13 15 16 17 18 18 17 17 17 17 17 16 16 17 19 19 18 20 23 26 29 30 29 29 29 28 25 22 22
12 11 11 10 10 10 10 9 8 8 6 6 6 6 7 8 8 9 10 12 13 14 15 15 15 16 16 16 16 15 15 14 14 14 13 12 13 13 14 12 10 12 15 18 26 28 22 20 19 16 16 16 15 16 17 17 18 20 21 21 22 22 21 21 21 21 20 19 19 19 20 21 19 19 22 25 29 32 33 32 31 30 28 25 23
15 14 13 12 12 12 11 11 10 9 8 8 8 8 9 10 10 10 11 12 13 14 15 16 17 18 18 18 19 18 18 17 16 15 13 12 11 11 11 10 8 9 11 13 22 30 27 25 26 25 24 24 23 22 22 22 23 26 26 24 24 23 22 22 23 24 23 22 21 21 22 23 21 21 21 23 28 31 35 37 36 32 29 28 26
17 16 16 14 13 13 13 13 12 11 11 10 11 11 12 12 12 12 12 12 13 13 14 16 17 17 18 19 20 20 20 19 18 17 16 14 13 10 8 8 8 9 9 11 19 28 29 26 27 28 27 26 26 24 22 21 22 23 24 25 25 23 22 21 22 23 24 23 23 23 22 22 22 22 21 23 27 30 33 37 37 34 31 28 28
19 18 17 16 15 15 15 15 14 13 13 13 13 14 14 15 15 15 14 14 14 15 15 16 17 17 18 19 20 20 20 19 18 18 17 16 15 13 10 8 8 8 10 13 16 24 29 27 25 27 27 25 26 25 24 23 23 24 24 25 27 25 24 22 20 20 22 23 24 23 22 22 23 23 21 21 25 27 30 32 33 35 33 29 28
21 19 19 18 17 17 17 17 16 15 14 14 15 16 16 17 17 17 17 17 17 17 18 18 19 19 20 21 21 20 20 19 18 17 17 17 16 16 15 12 11 9 10 12 15 21 28 28 25 25 27 27 26 26 26 27 28 28 28 28 27 27 28 26 23 20 21 22 24 23 22 22 23 24 22 20 22 24 25 27 28 30 30 31 32
22 21 20 20 20 20 19 19 18 17 16 17 18 18 19 19 20 19 19 19 19 19 20 20 21 22 22 22 22 21 20 19 18 17 17 17 17 17 17 16 15 13 10 11 14 17 22 26 25 23 25 27 27 26 27 28 29 29 29 29 28 27 27 28 27 24 21 21 23 23 22 20 21 23 24 23 22 22 23 25 26 24 23 29 35
25 23 22 22 22 22 21 21 20 19 19 20 20 21 22 22 22 21 21 21 21 21 22 22 23 24 23 22 21 20 19 18 18 18 18 18 18 18 18 18 18 17 15 13 14 16 18 22 24 22 23 27 29 27 26 26 28 28 27 27 27 27 26 27 28 28 25 22 22 23 22 21 20 21 23 25 24 22 23 25 25 24 23 25 29
27 25 24 25 24 24 23 23 23 22 22 23 23 24 24 23 23 23 22 22 22 23 24 24 25 23 21 20 19 19 18 18 18 18 18 19 19 19 19 19 19 20 20 19 19 20 22 24 27 28 28 29 30 28 26 25 26 27 27 27 27 26 27 28 28 29 28 24 22 22 21 21 20 20 21 24 25 24 24 24 25 25 26 25 24
30 28 27 27 26 25 24 24 25 25 25 25 25 24 24 24 24 24 23 22 23 24 25 25 24 22 20 19 19 18 18 18 19 19 19 20 20 20 20 19 19 19 21 22 22 23 26 28 30 31 31 30 30 28 26 24 24 26 27 27 26 23 23 26 25 26 29 28 24 23 22 20 20 21 21 22 24 25 25 25 25 25 25 26 25
33 30 30 28 27 26 25 25 26 26 26 26 25 25 24 24 24 24 23 23 24 25 25 24 23 22 21 20 19 19 19 20 20 20 20 21 21 22 20 18 17 16 17 19 20 21 23 26 29 31 32 32 31 30 27 23 21 21 21 21 21 20 19 21 22 22 25 29 28 26 24 22 20 21 22 23 23 24 26 27 27 27 26 26 27
37 34 33 30 27 26 25 26 26 27 27 26 25 24 24 24 24 23 23 24 24 24 24 23 22 21 21 21 21 21 21 21 21 21 21 21 22 23 23 21 21 20 17 16 17 17 19 22 24 26 29 30 31 32 31 26 20 17 18 20 21 22 20 21 23 23 23 26 28 28 27 25 23 22 22 24 25 25 26 29 30 30 30 29 29
39 36 33 27 25 25 24 25 26 26 26 24 23 24 23 23 23 23 23 24 24 23 22 21 21 21 21 22 23 23 23 24 24 24 23 23 22 23 23 23 24 24 23 21 19 19 19 20 20 21 23 26 29 30 31 32 25 19 19 20 19 19 20 21 23 24 23 24 25 26 27 27 26 25 24 24 25 26 27 28 30 32 32 32 32
36 35 31 24 23 25 24 25 26 26 25 22 22 23 22 22 22 22 23 23 23 22 21 21 22 22 23 24 25 25 25 25 26 26 26 25 25 24 24 24 24 25 26 26 25 23 22 21 21 20 21 22 24 25 27 29 27 21 17 17 17 17 18 19 20 20 20 21 20 19 23 25 25 24 25 25 25 25 25 26 28 29 31 33 34
32 33 29 24 25 26 25 25 26 24 22 20 21 22 22 21 22 22 23 22 22 21 21 21 22 23 25 26 26 27 26 26 26 27 28 28 28 28 28 27 27 27 27 27 28 28 26 25 23 23 23 22 21 21 20 20 20 18 16 16 17 18 18 18 19 17 18 21 20 19 22 24 24 24 24 24 25 23 23 23 24 26 28 30 33
34 34 29 25 27 28 26 25 25 22 20 19 19 19 20 21 21 21 22 21 21 21 22 23 24 25 26 27 28 29 29 28 28 28 29 29 30 31 31 31 31 31 30 30 29 29 29 28 27 25 23 22 21 20 18 16 16 17 18 18 17 18 19 19 19 18 18 21 22 22 23 23 23 26 25 24 24 22 19 19 19 21 24 27 30
35 35 32 29 28 28 26 25 23 20 18 17 17 18 20 21 21 21 21 21 22 22 22 23 25 26 28 29 31 32 32 31 30 29 29 30 31 32 32 33 33 32 32 30 27 27 28 29 29 28 24 23 23 21 18 18 19 20 21 20 18 19 20 21 21 22 23 25 22 20 23 22 21 26 29 29 27 24 20 18 16 17 19 22 26
36 37 36 32 28 27 25 23 20 17 15 15 16 18 19 20 20 21 21 22 22 22 23 24 26 28 29 31 33 34 35 35 33 31 30 30 31 32 33 34 33 32 31 27 23 22 23 23 25 25 23 21 21 20 19 19 21 21 22 22 22 23 24 26 28 28 29 31 28 24 24 23 21 24 28 31 32 30 26 23 20 18 16 16 19
35 37 35 30 27 26 24 20 17 15 14 15 16 18 18 19 20 21 22 22 23 24 25 26 27 30 31 33 34 36 37 38 36 33 31 30 32 33 33 32 30 28 27 26 26 28 29 28 27 26 25 24 24 24 23 22 23 20 20 24 27 25 25 29 31 29 25 26 27 25 24 24 23 22 24 29 34 33 30 28 25 22 19 16 15
37 38 34 30 27 25 21 17 14 14 14 15 16 17 17 17 19 20 21 22 24 25 27 28 30 32 34 34 35 37 39 39 38 35 32 31 33 32 29 27 25 24 24 23 26 30 32 33 34 34 34 33 32 32 32 32 31 26 24 29 29 25 25 29 31 29 25 23 22 21 21 23 23 21 21 27 32 33 31 29 27 24 22 20 18
38 36 31 27 24 20 16 14 13 13 14 15 15 15 15 16 17 19 20 22 25 26 28 30 33 35 37 38 38 38 40 39 37 36 33 33 34 31 27 26 25 24 23 22 24 26 28 30 31 31 32 33 34 35 35 35 35 31 31 32 29 25 27 30 29 27 27 27 24 21 20 21 21 20 20 24 29 30 29 28 26 23 22 22 21
35 31 27 23 19 15 14 13 12 12 12 12 12 12 13 14 16 18 20 23 25 27 29 31 35 38 40 41 41 41 42 40 37 36 34 33 33 32 28 26 26 25 24 24 24 23 23 24 24 24 24 25 27 29 30 30 30 31 33 33 30 28 30 30 27 26 27 28 24 21 22 21 19 19 18 18 21 24 24 24 22 21 21 22 20
Wind_Direction
240 237 240 255 258 241 223 214 219 220 216 226 248 274 278 223 209 205 207 215 223 226 227 225 222 224 228 231 231 232 229 223 219 219 230 225 191 181 151 67 56 71 46 32 33 32 28 22 16 16 353 312 270 269 265 257 250 224 229 284 322 326 314 281 242 157 125 103 90 82 77 73 66 62 55 47 41 35 31 31 33 35 35 39 44
240 244 254 267 266 250 232 218 217 221 218 224 247 273 286 219 203 203 204 210 221 226 228 230 227 227 229 230 229 230 228 224 221 221 232 244 251 272 292 313 324 340 54 35 26 27 30 31 17 18 17 358 341 321 306 277 255 224 222 229 258 289 296 284 269 249 168 135 98 88 82 77 70 66 61 54 46 38 32 29 31 34 34 36 41
240 249 263 277 277 259 236 219 217 219 214 219 235 248 264 189 192 195 198 203 214 221 224 227 229 231 233 232 228 228 229 227 224 225 233 244 261 277 284 291 291 287 283 358 18 18 11 13 7 5 17 16 14 357 333 293 236 214 220 220 227 254 279 283 272 270 257 219 131 97 86 84 77 69 67 60 52 43 33 28 27 31 34 34 37
243 250 265 283 287 263 232 217 218 216 209 213 222 215 166 156 173 180 185 191 199 206 211 219 227 233 236 236 232 231 233 232 230 231 237 248 265 275 275 275 267 265 283 304 349 16 1 353 349 348 2 16 33 58 24 271 238 214 216 219 223 234 255 272 274 271 266 264 250 162 108 99 91 77 73 66 58 47 36 29 25 26 30 33 34
249 256 270 286 290 267 231 215 214 211 206 210 215 211 181 158 166 173 178 184 191 200 206 212 222 231 237 239 235 234 236 237 237 236 242 253 264 268 265 262 257 262 281 295 314 347 357 349 343 343 349 346 341 78 128 154 204 231 223 223 224 227 236 254 268 269 261 262 261 237 210 144 119 103 88 76 67 53 41 30 23 23 26 30 32
257 262 273 289 288 262 229 215 213 209 205 209 213 212 192 171 172 178 184 192 200 207 212 216 221 227 235 239 236 234 235 237 240 243 249 256 258 261 260 256 257 267 277 288 300 312 332 337 333 336 341 335 333 344 48 130 100 271 240 223 221 224 229 239 253 261 253 251 252 244 231 206 171 150 139 101 83 62 47 32 23 20 22 26 28
260 265 272 281 271 243 218 213 217 213 209 211 213 214 204 191 187 191 200 210 218 226 228 227 229 229 231 237 239 236 236 237 242 249 251 249 250 253 254 255 258 264 270 278 285 289 300 308 310 318 329 337 341 341 329 249 87 46 251 223 218 219 223 231 241 250 246 241 244 244 239 223 204 195 197 176 128 82 56 39 25 19 19 22 26
258 265 267 263 244 233 220 216 218 215 212 213 212 214 213 210 208 210 219 228 235 241 243 238 237 240 235 234 238 238 238 239 241 243 240 235 238 241 240 246 250 254 260 267 276 280 280 282 285 290 310 333 344 347 338 311 304 16 19 14 20 222 226 233 239 244 242 238 239 240 242 235 219 214 217 212 194 169 58 41 26 19 18 20 23
256 257 256 245 229 232 232 226 220 215 215 214 213 214 216 217 219 225 233 238 242 247 250 245 239 241 240 233 232 232 232 233 232 231 233 233 234 236 236 241 247 252 256 260 271 278 276 271 269 268 275 304 328 337 343 335 305 323 351 10 31 24 308 265 260 254 244 242 246 242 243 246 235 225 227 228 220 220 246 6 14 11 13 17 21
251 244 243 240 234 234 241 237 221 216 218 216 216 219 221 225 231 238 244 248 250 252 254 255 252 246 243 238 232 230 229 229 232 236 240 244 244 247 248 249 253 258 261 264 266 270 273 270 265 265 266 266 284 305 317 340 343 331 345 354 2 7 2 351 327 286 255 245 252 256 257 258 250 238 235 237 234 232 243 277 335 353 2 10 15
230 226 229 234 237 232 235 238 228 224 222 218 220 225 228 237 249 258 261 257 252 255 259 266 270 259 247 243 238 236 236 236 239 241 245 250 256 260 260 258 258 261 266 270 271 269 269 267 264 264 268 265 260 265 270 299 327 334 347 350 335 339 351 359 357 329 280 247 245 257 272 276 265 250 241 243 241 240 244 259 289 321 344 358 4
243 232 230 228 229 230 231 235 234 229 226 224 229 234 237 244 251 268 275 263 252 257 263 270 274 263 248 245 244 242 242 244 245 247 250 254 258 261 265 265 262 261 264 266 272 276 276 275 268 261 261 263 258 253 252 262 289 303 319 334 325 321 334 343 351 350 321 266 240 242 253 283 280 259 247 248 246 245 248 258 271 293 324 344 354
257 242 233 226 221 226 232 238 240 233 232 236 239 238 240 243 243 244 249 245 246 255 260 267 271 263 249 242 244 245 242 245 249 252 256 257 257 258 261 265 265 262 261 263 267 272 279 284 281 270 258 258 259 255 252 253 259 269 286 305 313 311 314 317 328 341 330 296 257 243 240 259 277 265 255 252 248 248 250 260 267 280 308 326 340
260 246 234 227 217 219 227 234 238 227 225 233 239 242 241 245 243 229 220 222 235 246 253 261 265 265 262 251 247 247 243 245 252 257 261 262 260 259 259 261 264 265 262 263 266 267 272 276 281 281 268 259 260 259 255 249 246 258 276 286 295 297 294 293 302 314 309 297 279 254 240 237 242 252 262 258 253 251 248 258 268 274 293 311 324
250 238 227 219 206 205 210 219 226 208 202 217 232 243 242 241 233 216 210 215 223 234 246 254 260 268 276 271 259 254 252 252 256 262 273 278 270 263 263 264 266 267 266 266 266 266 267 271 274 276 273 266 260 258 256 250 251 265 277 280 283 286 286 286 288 299 299 283 274 262 246 238 232 235 250 255 256 254 248 252 265 273 285 300 314
252 228 218 211 197 184 182 188 194 177 169 186 210 228 237 245 232 214 213 216 215 224 238 247 257 264 269 274 264 257 256 258 269 278 285 294 286 270 265 266 267 266 267 269 268 266 266 268 270 268 268 264 260 257 255 256 260 268 275 278 280 278 278 280 280 289 297 279 266 261 252 245 238 233 238 246 250 253 251 249 255 268 280 290 303
71 76 111 165 175 164 160 166 167 156 155 171 196 211 218 224 226 212 215 222 218 224 235 241 249 254 255 256 252 250 251 260 281 290 287 294 298 284 270 268 272 268 266 267 266 264 265 266 264 262 260 258 256 255 253 254 258 264 269 271 273 272 270 271 269 272 284 276 261 256 253 250 245 238 234 239 244 249 253 250 249 255 266 277 290
77 74 74 79 93 118 131 145 156 156 156 173 195 205 205 204 211 211 212 224 218 221 232 235 241 247 246 242 242 245 251 260 274 286 291 294 296 291 281 277 279 277 269 266 263 262 263 266 265 259 256 255 255 255 255 254 256 259 263 264 263 260 255 258 259 257 262 266 258 254 252 252 250 243 237 239 241 241 246 246 244 246 251 259 271
83 81 81 81 82 92 103 114 125 131 139 159 187 202 205 200 206 211 209 210 202 206 220 226 234 231 220 225 235 243 250 257 263 272 284 292 289 283 281 276 273 277 273 266 264 264 265 271 278 274 265 264 264 261 258 257 257 259 261 263 260 251 244 248 254 250 248 251 252 252 251 252 252 246 244 245 241 238 239 241 239 238 241 245 251
91 90 90 90 90 92 93 94 97 97 97 105 129 161 194 206 209 211 210 209 204 204 207 207 207 194 190 206 225 239 249 253 256 261 267 281 287 284 280 274 268 268 269 268 267 269 273 277 283 285 280 277 276 272 265 260 260 262 262 259 251 245 245 249 249 247 243 242 243 246 248 252 253 250 249 249 244 239 238 239 239 237 238 242 242
97 98 98 97 97 97 95 94 92 89 86 82 82 85 102 212 231 227 222 220 220 220 216 210 209 205 201 206 217 231 244 248 250 253 255 268 284 287 284 279 273 269 267 268 268 269 272 276 281 285 286 283 280 280 279 272 266 260 253 249 247 245 248 252 248 242 238 236 237 238 243 250 252 254 254 252 248 244 241 239 240 240 240 241 241
104 104 104 103 102 102 101 101 98 94 88 79 67 55 50 37 319 268 249 238 235 237 236 233 232 233 232 231 234 239 244 250 254 252 252 263 275 282 284 282 279 273 269 266 266 268 271 273 276 280 283 284 283 281 281 277 270 258 242 238 262 263 258 266 264 247 236 232 232 232 235 243 250 255 256 254 252 249 245 240 238 238 239 240 241
115 114 113 112 109 107 107 104 101 97 91 83 74 63 58 55 41 17 318 277 256 253 252 252 251 253 254 253 253 252 252 257 261 259 258 265 274 281 285 286 283 280 277 271 266 269 273 275 276 277 277 280 284 286 285 278 271 265 255 248 265 280 275 283 286 257 237 232 231 230 230 234 244 252 253 253 255 255 251 245 241 240 236 234 236
140 134 130 125 120 117 108 99 94 91 92 90 83 76 66 53 43 33 17 351 305 273 263 259 256 257 261 262 261 261 260 261 265 267 267 267 273 280 284 287 284 282 283 280 275 273 272 274 277 278 276 275 279 284 287 288 280 275 269 257 255 271 283 286 288 262 234 234 233 232 231 230 237 247 250 250 253 257 253 246 245 245 238 233 231
173 173 164 152 142 136 119 106 94 76 79 77 70 67 59 45 34 21 12 4 351 333 305 280 267 260 258 259 259 260 262 264 267 269 271 272 275 278 281 283 284 285 286 286 284 280 275 274 275 275 274 274 278 279 280 289 291 286 279 266 258 266 277 283 281 267 247 241 239 236 235 232 233 240 249 251 250 252 251 247 248 249 242 237 233
196 200 198 190 177 164 150 144 157 88 66 58 47 44 41 33 27 16 7 3 355 349 342 327 309 290 275 265 260 258 259 261 263 265 268 271 272 275 279 282 285 287 288 287 284 280 278 276 273 274 275 275 278 278 275 281 290 293 289 274 263 264 271 277 278 272 261 252 249 248 244 238 235 236 245 252 250 250 253 252 251 251 245 241 237
212 216 215 213 207 199 191 198 224 256 306 11 16 17 16 11 10 7 4 3 356 350 346 339 331 321 310 298 284 275 269 265 264 264 265 267 268 271 276 283 290 292 290 287 283 278 278 278 277 277 277 277 280 281 278 276 279 285 287 275 263 260 263 266 267 269 268 260 254 251 248 244 239 235 238 246 248 249 254 256 253 249 247 244 238
227 228 225 220 218 215 216 223 243 266 287 312 333 342 345 345 348 351 355 355 350 347 344 339 335 329 323 318 310 303 297 290 285 279 275 273 273 272 273 277 286 293 296 293 288 285 284 282 279 278 278 281 284 283 279 277 273 271 269 265 262 258 254 255 257 260 265 265 256 247 245 244 241 236 235 241 245 247 250 254 254 250 248 245 237
236 237 233 227 222 219 221 228 242 258 273 292 305 314 322 326 331 336 339 343 343 343 342 339 338 334 328 323 317 312 308 306 303 298 294 289 283 279 276 272 273 281 291 294 290 288 290 288 286 286 284 281 277 271 267 269 265 258 257 259 261 262 257 254 254 256 260 263 255 243 240 242 241 237 235 236 241 245 246 248 252 251 248 244 237
243 243 240 234 228 226 227 230 238 249 261 274 281 288 298 304 313 322 327 334 337 339 340 340 340 339 336 332 325 320 315 312 309 305 302 298 293 287 280 273 270 270 274 284 286 286 289 291 291 290 285 280 276 273 271 272 267 257 254 258 262 265 265 261 257 256 258 261 258 246 240 240 240 240 239 235 236 241 243 243 247 250 247 243 238
246 247 247 243 238 234 234 237 243 252 261 270 275 278 283 290 300 311 320 328 332 335 337 338 339 341 340 339 335 331 326 321 316 310 305 299 294 290 283 277 272 268 267 271 279 283 285 286 284 282 280 276 271 270 269 270 272 268 265 266 266 267 270 270 265 260 258 260 262 257 249 246 243 242 243 239 236 238 240 240 242 245 247 243 239
246 249 251 249 246 243 241 245 251 260 270 281 287 286 283 285 293 302 311 318 324 329 332 334 336 338 338 338 337 335 333 330 326 322 317 309 299 291 283 278 271 269 268 266 272 278 281 281 281 283 283 280 277 275 274 272 272 273 273 273 271 269 272 275 273 266 260 260 262 261 256 251 247 247 245 240 237 238 239 240 239 240 243 242 238
246 249 250 251 250 247 246 250 257 265 276 287 294 295 290 287 290 295 302 309 314 320 324 326 329 331 332 332 331 330 330 329 328 326 323 321 315 306 292 280 271 267 267 266 271 278 281 281 281 283 283 282 282 282 281 280 277 274 273 272 272 272 271 273 276 270 260 258 260 261 258 252 247 248 248 242 237 236 237 240 241 238 235 236 235
244 247 251 253 253 250 249 251 256 264 275 287 293 296 295 291 291 295 300 307 311 315 319 321 324 325 325 324 323 322 322 321 321 320 318 318 316 312 306 292 280 272 269 269 271 277 282 282 282 282 282 282 281 280 277 277 278 277 275 272 271 270 267 268 274 272 263 259 260 261 258 253 248 247 249 245 238 236 236 238 242 240 232 229 231
242 243 248 252 254 254 253 253 256 262 271 281 288 293 294 293 293 297 303 310 314 317 320 320 320 321 320 319 318 316 316 315 314 313 311 310 308 308 309 304 293 281 274 276 276 279 283 286 286 284 283 281 278 277 276 276 278 281 282 280 274 269 266 264 265 269 266 260 260 260 258 255 251 248 247 244 240 238 234 233 239 244 238 230 229
239 240 243 247 252 255 255 255 258 262 269 276 283 288 291 291 292 297 303 308 314 317 318 318 318 318 318 318 317 316 315 314 313 311 309 306 305 305 305 305 303 295 285 280 280 283 287 289 290 289 286 285 282 279 278 279 282 283 284 283 279 274 269 262 260 263 263 260 258 259 260 259 256 252 248 245 244 241 235 230 234 242 242 238 234
237 236 238 242 247 251 254 256 258 261 267 272 277 283 288 289 291 293 298 304 310 313 313 314 315 316 318 318 319 318 317 316 316 314 311 308 305 303 301 300 300 297 292 286 284 285 286 288 291 292 291 292 292 288 283 281 283 283 283 282 280 278 273 265 259 258 259 260 259 260 262 262 258 254 250 247 245 243 237 232 233 237 242 246 244
235 233 234 238 242 246 249 251 254 258 262 267 273 280 284 287 287 288 293 300 306 307 309 311 314 316 318 320 320 320 320 319 318 315 313 310 306 303 300 297 295 293 291 290 289 288 289 290 292 294 295 297 297 294 289 283 280 281 282 283 282 281 280 276 267 258 255 256 259 262 264 265 261 256 252 249 246 243 240 235 235 237 240 247 250
235 232 232 234 237 240 244 246 250 254 259 264 270 277 281 283 283 286 292 299 302 304 307 310 314 316 318 320 321 321 321 319 317 314 311 309 306 303 300 297 294 291 289 290 289 287 288 290 291 292 293 295 296 295 293 288 280 278 281 284 285 284 282 281 277 265 256 253 256 262 264 265 265 259 253 251 248 244 241 239 238 238 240 244 248
234 232 231 231 233 235 238 243 247 253 258 263 270 275 278 278 280 286 292 297 300 303 307 310 313 316 317 320 321 321 320 317 314 311 308 305 303 301 298 294 289 285 284 286 285 283 283 284 286 288 289 289 291 292 293 291 285 278 275 277 279 280 279 279 277 270 260 255 255 258 260 262 267 265 258 252 249 246 242 239 239 239 240 243 245
233 232 229 227 229 232 236 241 247 253 258 264 270 273 275 276 281 288 293 297 300 304 308 310 312 314 315 317 318 317 316 314 311 308 306 304 301 299 297 293 289 286 280 276 276 275 275 277 278 282 284 284 285 287 287 288 286 278 269 265 269 274 277 276 275 274 272 265 259 257 258 261 266 269 266 257 250 247 243 241 239 238 238 240 242
229 228 222 219 226 231 236 243 248 252 257 263 268 271 274 279 286 293 297 301 304 306 308 310 310 311 311 312 313 313 312 311 310 308 307 304 300 297 295 291 288 286 281 277 273 270 270 270 270 273 274 276 279 281 282 282 282 280 276 272 272 274 276 277 278 279 278 276 270 263 260 261 264 267 268 264 257 251 247 244 243 241 240 239 240
226 225 220 218 227 232 236 242 246 250 254 260 266 270 276 284 293 298 301 303 306 307 308 309 307 308 308 309 310 310 311 311 311 309 308 306 303 299 296 291 287 283 280 278 275 272 269 266 265 266 266 268 273 275 277 279 279 278 278 277 275 274 274 277 280 280 278 277 276 270 263 258 257 259 261 262 260 256 252 250 249 247 246 243 243
222 221 221 221 226 231 235 239 244 248 251 257 264 271 279 289 295 299 301 303 305 307 307 307 307 307 308 308 308 309 310 310 309 309 308 306 304 301 298 294 289 284 280 277 274 272 269 266 264 263 262 264 268 268 269 273 274 272 273 274 274 273 272 272 272 273 274 272 269 269 268 260 251 248 251 254 255 256 256 257 255 254 251 248 246
215 218 223 224 225 229 233 238 242 245 247 254 262 272 284 293 296 298 300 303 305 307 307 307 308 308 309 309 310 311 311 311 310 309 307 305 302 299 296 294 291 288 285 280 275 271 268 264 262 261 260 261 264 263 263 266 268 268 269 270 271 271 270 269 268 267 266 266 265 268 269 265 256 247 245 248 252 252 254 259 259 257 253 248 245
216 220 225 226 224 227 232 236 240 242 245 255 267 278 288 294 295 297 301 306 307 307 308 308 309 309 310 310 311 312 313 312 312 310 308 305 301 298 295 293 291 289 287 283 279 275 270 266 263 262 261 260 262 263 263 263 263 263 265 267 267 266 265 265 264 262 258 256 258 264 266 265 262 255 250 248 251 251 251 255 261 262 257 251 244
223 223 223 222 222 226 231 233 235 239 247 259 271 282 289 291 292 295 302 306 307 308 309 311 311 310 309 310 311 313 313 312 312 311 308 305 301 298 295 292 290 287 284 280 275 272 270 266 264 264 263 261 261 262 262 261 261 261 262 262 260 261 264 265 264 262 261 258 255 257 261 261 260 260 256 252 251 254 255 255 258 264 264 258 250
223 221 219 220 223 226 227 228 233 240 251 262 273 282 285 286 289 296 302 305 307 309 310 311 310 308 307 309 310 311 311 312 312 311 309 306 302 299 295 292 289 286 282 277 274 271 269 267 265 265 263 260 255 253 253 254 257 261 261 258 257 260 264 265 264 263 264 262 256 253 256 258 257 259 261 257 253 255 257 256 254 257 260 258 254
218 217 218 218 219 221 221 225 235 247 258 269 276 279 280 283 290 297 303 305 307 308 309 309 307 305 304 306 307 308 309 310 310 310 309 307 303 299 295 291 288 285 282 279 277 276 275 273 271 270 269 266 262 258 256 256 258 259 261 260 259 258 258 259 261 261 259 257 253 249 251 255 254 254 259 261 257 255 256 257 256 256 256 255 251
216 215 214 211 208 210 216 226 240 253 263 270 274 275 279 287 294 299 303 304 305 307 308 306 303 302 303 304 306 307 308 308 308 308 307 305 302 299 294 291 288 284 282 282 280 279 278 277 274 273 272 271 270 267 265 264 262 258 254 255 254 252 252 254 256 259 259 255 249 243 246 250 250 249 255 261 262 258 254 255 258 258 255 253 250
211 207 206 203 200 204 215 228 241 252 261 267 271 277 283 290 296 300 302 303 303 304 305 303 301 301 303 306 308 308 307 307 307 306 305 303 301 298 294 290 285 283 283 284 282 280 278 276 274 272 271 270 269 268 267 267 265 258 252 250 248 246 248 250 250 252 255 255 248 241 242 246 247 247 249 254 263 265 259 255 256 256 253 253 251
Height
1549 1549 1549 1550 1550 1551 1551 1551 1552 1553 1554 1554 1554 1554 1554 1553 1553 1554 1556 1557 1559 1559 1560 1561 1562 1563 1564 1565 1567 1568 1569 1570 1570 1570 1571 1570 1570 1570 1571 1571 1571 1571 1572 1572 1572 1572 1573 1573 1573 1573 1573 1573 1574 1574 1574 1575 1575 1576 1576 1576 1576 1576 1576 1577 1577 1577 1576 1576 1576 1576 1575 1575 1575 1574 1574 1573 1573 1572 1571 1571 1570 1569 1568 1568 1567
1548 1548 1549 1550 1550 1550 1550 1550 1551 1552 1553 1553 1554 1554 1553 1553 1553 1554 1556 1558 1559 1559 1560 1561 1562 1562 1563 1564 1566 1568 1569 1569 1570 1570 1570 1571 1571 1571 1571 1571 1571 1571 1571 1571 1572 1572 1572 1573 1573 1573 1573 1573 1573 1574 1574 1574 1574 1575 1575 1576 1576 1576 1576 1576 1576 1576 1576 1576 1576 1576 1576 1575 1575 1575 1574 1574 1573 1573 1572 1571 1570 1570 1569 1569 1568
1547 1547 1548 1549 1549 1549 1549 1550 1550 1551 1552 1553 1553 1553 1553 1553 1553 1555 1556 1558 1559 1559 1560 1561 1561 1562 1563 1564 1565 1567 1568 1569 1569 1570 1570 1570 1571 1571 1571 1571 1571 1571 1571 1571 1571 1571 1571 1572 1572 1573 1573 1573 1573 1573 1573 1573 1574 1574 1574 1575 1575 1576 1576 1576 1576 1576 1576 1576 1576 1576 1576 1576 1575 1575 1575 1574 1574 1573 1573 1572 1571 1570 1570 1569 1568
1546 1547 1548 1547 1547 1547 1548 1549 1550 1551 1552 1552 1553 1553 1554 1553 1554 1555 1557 1558 1559 1559 1560 1561 1561 1562 1562 1563 1564 1566 1567 1568 1569 1569 1570 1570 1570 1570 1570 1571 1571 1571 1571 1570 1570 1570 1571 1571 1572 1572 1572 1572 1573 1572 1572 1573 1573 1573 1573 1574 1574 1575 1575 1575 1575 1576 1576 1576 1576 1576 1575 1575 1575 1575 1575 1574 1574 1574 1573 1573 1572 1571 1570 1570 1569
1545 1545 1546 1546 1545 1545 1546 1547 1549 1551 1552 1553 1553 1553 1554 1554 1555 1556 1557 1558 1559 1560 1560 1560 1561 1561 1562 1563 1564 1565 1566 1567 1568 1569 1569 1569 1570 1570 1570 1570 1570 1570 1570 1570 1570 1570 1570 1571 1571 1571 1572 1572 1572 1572 1572 1572 1572 1572 1572 1573 1573 1573 1574 1574 1575 1575 1575 1575 1575 1575 1575 1575 1575 1575 1575 1575 1574 1574 1574 1573 1572 1571 1571 1570 1569
1544 1544 1545 1545 1545 1545 1545 1547 1549 1551 1552 1553 1554 1554 1554 1555 1555 1556 1557 1558 1559 1560 1560 1560 1560 1561 1561 1562 1563 1564 1564 1566 1567 1568 1568 1569 1569 1569 1570 1570 1570 1570 1570 1570 1570 1570 1570 1570 1571 1571 1571 1571 1571 1571 1571 1571 1571 1571 1571 1572 1572 1572 1573 1573 1574 1574 1574 1574 1575 1574 1575 1575 1575 1574 1574 1574 1574 1574 1574 1573 1573 1572 1571 1570 1570
1543 1543 1543 1544 1544 1544 1545 1547 1548 1550 1552 1553 1553 1554 1555 1555 1556 1557 1558 1559 1559 1559 1559 1559 1560 1560 1561 1561 1562 1563 1564 1565 1566 1567 1567 1568 1568 1568 1569 1569 1569 1569 1569 1569 1569 1569 1570 1570 1570 1571 1571 1571 1571 1570 1570 1571 1571 1570 1570 1570 1571 1571 1571 1572 1572 1573 1573 1573 1574 1574 1574 1574 1574 1574 1574 1574 1574 1574 1574 1573 1573 1572 1571 1571 1570
1542 1542 1542 1543 1543 1543 1544 1546 1547 1550 1551 1551 1552 1553 1554 1554 1555 1556 1557 1558 1558 1559 1559 1558 1559 1560 1560 1561 1562 1562 1563 1564 1565 1566 1566 1567 1567 1567 1568 1568 1568 1568 1568 1568 1568 1569 1569 1569 1570 1570 1570 1571 1571 1570 1570 1570 1570 1570 1570 1570 1570 1570 1571 1571 1571 1571 1572 1572 1572 1573 1573 1573 1573 1573 1574 1574 1574 1573 1573 1573 1573 1572 1572 1571 1570
1541 1541 1541 1541 1542 1542 1543 1544 1547 1549 1549 1550 1551 1551 1552 1553 1554 1555 1556 1556 1557 1557 1557 1557 1558 1558 1559 1560 1561 1561 1562 1563 1564 1565 1565 1565 1566 1566 1566 1567 1567 1567 1567 1567 1568 1568 1568 1569 1569 1569 1570 1570 1570 1570 1570 1570 1570 1570 1569 1569 1570 1570 1570 1570 1571 1571 1571 1571 1571 1572 1572 1573 1573 1573 1573 1573 1573 1573 1573 1573 1572 1572 1572 1571 1570
1540 1540 1540 1540 1541 1541 1542 1543 1545 1546 1548 1550 1550 1550 1552 1552 1552 1553 1554 1555 1556 1556 1556 1556 1556 1557 1558 1559 1560 1561 1561 1562 1563 1563 1564 1564 1565 1565 1565 1565 1566 1566 1566 1566 1567 1567 1567 1567 1568 1568 1569 1570 1570 1570 1570 1570 1570 1569 1569 1569 1569 1569 1570 1570 1570 1570 1570 1570 1570 1571 1572 1572 1572 1572 1572 1573 1573 1573 1573 1572 1572 1572 1571 1571 1570
1539 1539 1539 1539 1540 1540 1541 1542 1544 1546 1547 1549 1549 1550 1551 1551 1550 1551 1552 1554 1555 1555 1555 1555 1555 1556 1557 1557 1558 1559 1560 1561 1561 1562 1562 1563 1563 1564 1564 1564 1564 1565 1565 1565 1565 1566 1566 1566 1567 1567 1568 1568 1569 1569 1569 1569 1569 1569 1569 1569 1569 1569 1569 1569 1569 1569 1569 1569 1569 1570 1571 1571 1571 1572 1572 1572 1572 1572 1572 1572 1572 1572 1571 1571 1570
1538 1538 1538 1539 1539 1540 1541 1542 1544 1545 1546 1547 1547 1548 1549 1549 1549 1549 1551 1553 1554 1554 1554 1554 1554 1554 1555 1556 1557 1558 1558 1559 1560 1560 1561 1561 1562 1562 1562 1563 1563 1563 1564 1564 1564 1565 1565 1565 1566 1566 1567 1567 1567 1568 1568 1568 1568 1568 1568 1568 1568 1568 1568 1568 1568 1568 1568 1568 1568 1568 1569 1570 1570 1571 1571 1571 1571 1571 1571 1571 1571 1571 1571 1571 1570
1536 1536 1537 1537 1538 1539 1540 1541 1543 1544 1545 1545 1545 1546 1547 1547 1547 1548 1549 1551 1552 1553 1554 1554 1554 1553 1554 1554 1555 1556 1557 1557 1558 1559 1559 1559 1560 1560 1560 1561 1561 1562 1562 1563 1563 1564 1564 1564 1564 1565 1565 1565 1566 1566 1566 1567 1567 1567 1567 1567 1567 1567 1567 1567 1567 1567 1567 1567 1567 1567 1568 1569 1569 1570 1570 1570 1570 1570 1570 1571 1571 1571 1571 1570 1570
1534 1534 1535 1535 1537 1538 1538 1540 1541 1542 1543 1544 1544 1544 1545 1545 1545 1546 1547 1549 1550 1552 1552 1553 1553 1553 1552 1552 1553 1554 1555 1555 1556 1556 1557 1557 1558 1558 1558 1559 1559 1560 1560 1561 1561 1562 1562 1563 1563 1563 1564 1564 1564 1564 1565 1565 1565 1565 1566 1566 1566 1566 1566 1566 1566 1566 1566 1566 1566 1566 1566 1567 1568 1568 1569 1569 1569 1569 1570 1570 1570 1570 1570 1570 1570
1533 1533 1533 1533 1535 1536 1537 1538 1539 1540 1541 1542 1542 1543 1543 1544 1544 1545 1546 1547 1549 1550 1550 1551 1552 1552 1552 1551 1552 1553 1553 1554 1554 1555 1555 1555 1556 1556 1556 1556 1557 1558 1558 1559 1559 1560 1561 1561 1561 1562 1562 1562 1562 1563 1563 1563 1563 1564 1564 1564 1564 1565 1565 1565 1565 1565 1565 1564 1565 1565 1565 1566 1567 1567 1567 1568 1568 1568 1569 1569 1569 1569 1569 1570 1569
1532 1532 1532 1532 1533 1534 1535 1537 1538 1538 1539 1540 1541 1541 1542 1543 1543 1544 1546 1546 1547 1548 1548 1550 1551 1551 1551 1551 1551 1551 1552 1552 1552 1553 1554 1554 1553 1553 1553 1554 1554 1555 1556 1556 1557 1558 1558 1559 1559 1560 1560 1560 1561 1561 1561 1561 1562 1562 1562 1562 1562 1563 1563 1563 1563 1563 1563 1563 1563 1563 1563 1564 1565 1566 1566 1567 1567 1567 1568 1568 1568 1568 1569 1569 1569
1532 1532 1532 1532 1533 1534 1535 1536 1536 1537 1538 1539 1540 1540 1541 1542 1542 1543 1544 1545 1545 1546 1547 1548 1549 1550 1550 1550 1550 1550 1550 1550 1550 1551 1551 1552 1552 1552 1552 1552 1552 1553 1553 1554 1555 1555 1556 1556 1556 1557 1557 1558 1558 1558 1559 1559 1559 1559 1560 1560 1560 1560 1561 1561 1561 1562 1562 1562 1562 1562 1562 1562 1563 1564 1564 1565 1566 1566 1567 1567 1567 1567 1568 1568 1568
1533 1533 1533 1533 1533 1534 1534 1535 1536 1536 1537 1538 1539 1540 1540 1541 1542 1542 1543 1543 1544 1545 1546 1547 1547 1548 1548 1549 1549 1549 1549 1549 1549 1548 1548 1549 1550 1550 1550 1550 1551 1551 1551 1552 1552 1553 1553 1554 1554 1554 1555 1555 1556 1556 1556 1557 1557 1557 1557 1557 1557 1558 1558 1559 1559 1560 1560 1560 1560 1560 1560 1560 1561 1562 1563 1564 1564 1565 1565 1566 1566 1566 1567 1567 1567
1534 1534 1534 1534 1534 1534 1535 1535 1536 1536 1537 1537 1538 1539 1540 1540 1541 1541 1542 1542 1543 1544 1545 1545 1546 1546 1547 1547 1547 1547 1548 1548 1548 1547 1547 1546 1547 1548 1549 1549 1549 1550 1550 1550 1551 1551 1551 1552 1552 1552 1552 1553 1553 1554 1554 1554 1555 1555 1555 1555 1555 1556 1556 1556 1557 1557 1558 1558 1559 1559 1559 1558 1559 1560 1561 1562 1562 1563 1563 1564 1564 1565 1565 1565 1566
1535 1535 1535 1535 1535 1535 1535 1536 1536 1536 1537 1537 1538 1538 1539 1540 1540 1541 1541 1542 1542 1543 1543 1544 1545 1545 1546 1546 1546 1546 1547 1547 1547 1547 1546 1545 1545 1546 1547 1547 1548 1548 1549 1549 1549 1549 1549 1550 1550 1550 1550 1551 1551 1551 1551 1552 1552 1552 1553 1553 1553 1553 1554 1554 1554 1555 1555 1556 1557 1557 1557 1557 1557 1557 1558 1560 1560 1561 1561 1562 1563 1563 1564 1564 1564
1536 1536 1536 1536 1536 1536 1536 1536 1537 1537 1537 1538 1538 1538 1539 1539 1540 1540 1541 1541 1542 1542 1543 1543 1544 1544 1545 1545 1546 1546 1546 1546 1546 1546 1546 1546 1545 1545 1545 1545 1546 1547 1547 1547 1547 1547 1547 1548 1548 1548 1548 1548 1548 1549 1549 1550 1550 1550 1550 1551 1551 1551 1552 1552 1552 1552 1552 1553 1554 1555 1555 1555 1555 1555 1556 1557 1558 1559 1559 1560 1561 1561 1562 1563 1563
1536 1536 1537 1537 1537 1537 1537 1537 1538 1538 1538 1538 1538 1539 1539 1539 1540 1540 1541 1541 1542 1542 1542 1543 1543 1544 1544 1544 1545 1545 1545 1545 1545 1545 1545 1545 1545 1545 1544 1545 1545 1545 1545 1545 1545 1545 1545 1545 1545 1546 1545 1545 1546 1546 1547 1547 1548 1548 1548 1548 1549 1549 1549 1549 1549 1549 1549 1550 1551 1552 1553 1553 1553 1553 1553 1554 1555 1556 1557 1558 1559 1559 1560 1561 1561
1537 1537 1537 1537 1538 1538 1538 1538 1538 1538 1539 1539 1539 1539 1539 1540 1540 1540 1541 1541 1541 1541 1542 1542 1542 1543 1543 1543 1544 1544 1544 1544 1544 1544 1544 1544 1544 1544 1543 1544 1543 1542 1543 1543 1543 1543 1543 1543 1543 1543 1543 1543 1543 1543 1544 1544 1545 1545 1546 1546 1546 1547 1547 1547 1546 1546 1547 1547 1548 1549 1550 1551 1551 1551 1551 1552 1552 1553 1554 1555 1556 1557 1557 1558 1559
1538 1538 1538 1538 1538 1538 1538 1539 1539 1539 1539 1539 1539 1540 1540 1540 1540 1541 1541 1541 1541 1541 1541 1541 1542 1542 1542 1542 1542 1542 1543 1543 1542 1542 1542 1542 1542 1542 1542 1542 1541 1541 1541 1540 1540 1541 1541 1541 1541 1541 1541 1541 1541 1541 1541 1541 1542 1542 1543 1543 1544 1544 1544 1544 1544 1544 1544 1545 1545 1546 1547 1548 1549 1549 1549 1549 1550 1550 1551 1552 1553 1554 1554 1556 1557
1538 1538 1538 1539 1539 1539 1539 1539 1539 1539 1539 1539 1540 1540 1540 1540 1540 1541 1541 1541 1541 1541 1541 1541 1541 1541 1541 1541 1541 1541 1541 1541 1541 1541 1541 1541 1541 1540 1540 1540 1539 1538 1538 1537 1537 1537 1538 1539 1539 1539 1539 1538 1538 1538 1538 1538 1539 1539 1539 1540 1541 1541 1542 1542 1542 1542 1542 1542 1543 1543 1544 1545 1546 1546 1546 1546 1547 1548 1548 1549 1550 1551 1552 1553 1554
1538 1538 1539 1539 1539 1539 1539 1539 1539 1539 1539 1539 1539 1540 1540 1540 1540 1541 1541 1541 1541 1541 1541 1540 1540 1540 1540 1540 1540 1540 1540 1540 1540 1540 1539 1539 1539 1539 1538 1537 1537 1536 1536 1536 1535 1535 1535 1536 1536 1536 1536 1536 1536 1536 1535 1535 1536 1536 1536 1537 1538 1538 1539 1539 1539 1539 1539 1539 1540 1540 1541 1541 1542 1543 1543 1544 1545 1546 1546 1546 1547 1548 1549 1550 1551
1538 1538 1539 1539 1539 1539 1539 1540 1539 1539 1539 1539 1540 1540 1540 1540 1540 1540 1540 1540 1540 1540 1540 1539 1539 1539 1539 1539 1539 1539 1539 1539 1539 1539 1538 1538 1538 1538 1537 1536 1535 1534 1534 1533 1533 1533 1533 1534 1534 1534 1534 1534 1533 1533 1533 1533 1533 1533 1533 1533 1533 1534 1535 1536 1536 1535 1536 1536 1537 1537 1538 1538 1539 1540 1541 1541 1542 1543 1543 1543 1544 1545 1546 1547 1548
1537 1538 1538 1538 1539 1539 1539 1539 1539 1539 1539 1539 1539 1539 1539 1539 1539 1540 1540 1540 1539 1539 1539 1538 1538 1538 1538 1538 1538 1537 1537 1537 1537 1537 1537 1536 1536 1536 1536 1536 1535 1533 1532 1531 1530 1531 1531 1531 1532 1532 1532 1531 1531 1530 1530 1529 1530 1530 1530 1530 1530 1530 1531 1532 1532 1532 1532 1533 1534 1534 1535 1535 1535 1536 1537 1538 1538 1539 1540 1541 1541 1542 1543 1544 1545
1537 1537 1538 1538 1538 1538 1538 1539 1539 1539 1539 1539 1539 1539 1539 1539 1539 1539 1539 1539 1539 1539 1538 1538 1537 1537 1537 1536 1536 1536 1536 1535 1535 1535 1534 1534 1534 1534 1534 1534 1534 1533 1532 1529 1527 1528 1529 1529 1529 1530 1529 1529 1528 1527 1527 1527 1527 1527 1527 1528 1527 1527 1528 1528 1528 1529 1529 1530 1530 1531 1532 1532 1532 1532 1533 1534 1535 1536 1537 1537 1538 1539 1541 1541 1542
1536 1537 1537 1537 1537 1537 1538 1538 1538 1538 1538 1538 1539 1539 1539 1539 1538 1538 1538 1538 1538 1538 1538 1537 1537 1536 1536 1535 1535 1534 1534 1534 1533 1533 1533 1532 1532 1532 1532 1532 1532 1532 1531 1529 1525 1524 1526 1526 1526 1527 1526 1526 1526 1525 1525 1525 1525 1524 1524 1525 1525 1525 1524 1524 1524 1525 1525 1526 1527 1528 1528 1529 1529 1529 1529 1530 1531 1532 1533 1534 1534 1536 1537 1538 1539
1536 1536 1536 1537 1537 1537 1537 1537 1537 1537 1537 1538 1538 1538 1538 1538 1538 1538 1537 1537 1536 1536 1536 1535 1535 1535 1534 1534 1533 1532 1532 1532 1531 1531 1530 1530 1530 1530 1530 1530 1530 1530 1530 1529 1523 1521 1523 1524 1523 1524 1524 1523 1523 1522 1522 1522 1522 1521 1521 1521 1521 1521 1521 1521 1521 1521 1522 1522 1523 1524 1525 1525 1525 1526 1526 1526 1527 1527 1529 1530 1531 1532 1533 1534 1535
1534 1535 1535 1535 1536 1536 1536 1535 1535 1536 1536 1536 1537 1537 1537 1537 1537 1537 1537 1536 1536 1535 1535 1534 1533 1532 1532 1531 1531 1530 1529 1529 1529 1528 1528 1528 1527 1528 1528 1527 1528 1527 1527 1527 1523 1518 1520 1521 1520 1520 1520 1519 1519 1519 1519 1519 1519 1518 1518 1518 1518 1518 1518 1518 1518 1518 1519 1519 1519 1520 1521 1521 1522 1522 1522 1522 1523 1523 1525 1526 1528 1529 1529 1530 1532
1533 1533 1533 1534 1534 1534 1534 1534 1534 1534 1535 1535 1535 1535 1535 1535 1536 1536 1536 1536 1535 1535 1535 1534 1533 1532 1531 1531 1530 1529 1528 1527 1527 1526 1525 1525 1525 1525 1525 1525 1526 1525 1525 1525 1522 1516 1516 1518 1517 1517 1517 1516 1515 1516 1516 1515 1515 1515 1515 1515 1515 1515 1515 1515 1515 1514 1515 1516 1516 1516 1517 1517 1518 1518 1518 1518 1518 1519 1520 1521 1523 1524 1525 1526 1528
1531 1531 1532 1532 1532 1533 1532 1532 1533 1533 1533 1534 1534 1534 1533 1533 1534 1534 1534 1534 1534 1534 1534 1533 1532 1532 1531 1530 1529 1528 1527 1527 1526 1525 1524 1524 1524 1523 1523 1523 1523 1523 1522 1521 1520 1515 1513 1514 1514 1513 1513 1513 1512 1513 1513 1512 1512 1512 1512 1512 1512 1512 1512 1512 1512 1511 1512 1512 1513 1513 1513 1513 1514 1514 1514 1514 1514 1515 1516 1517 1518 1519 1522 1524 1524
1528 1529 1530 1530 1531 1531 1531 1531 1531 1532 1532 1532 1532 1532 1532 1532 1532 1532 1532 1533 1532 1532 1532 1531 1530 1530 1530 1529 1528 1527 1526 1526 1525 1525 1524 1523 1523 1522 1521 1521 1520 1519 1519 1518 1517 1514 1510 1510 1510 1510 1509 1509 1509 1509 1509 1509 1508 1508 1508 1508 1508 1508 1508 1508 1508 1508 1508 1509 1509 1509 1509 1510 1510 1510 1510 1510 1511 1511 1512 1513 1514 1515 1519 1520 1520
1525 1526 1527 1528 1529 1529 1529 1529 1530 1530 1530 1531 1531 1531 1531 1531 1531 1531 1531 1531 1531 1530 1530 1529 1528 1528 1527 1526 1526 1525 1524 1524 1523 1523 1522 1522 1521 1520 1519 1519 1518 1517 1516 1515 1514 1512 1509 1506 1506 1506 1505 1505 1505 1506 1506 1505 1505 1505 1505 1504 1504 1504 1504 1504 1504 1505 1505 1505 1505 1505 1506 1506 1506 1506 1507 1507 1507 1507 1508 1510 1511 1512 1514 1514 1515
1521 1523 1524 1525 1526 1526 1527 1528 1528 1529 1529 1529 1529 1529 1530 1530 1530 1530 1530 1530 1529 1529 1528 1527 1527 1526 1525 1524 1523 1522 1521 1520 1520 1520 1519 1519 1518 1518 1517 1516 1516 1515 1514 1513 1511 1510 1507 1504 1503 1503 1502 1501 1501 1502 1503 1502 1502 1501 1501 1501 1501 1501 1500 1500 1500 1501 1501 1502 1502 1502 1502 1503 1503 1503 1503 1503 1503 1504 1505 1506 1507 1508 1509 1510 1511
1518 1519 1520 1521 1522 1523 1524 1525 1526 1527 1527 1527 1528 1528 1528 1528 1528 1528 1528 1528 1528 1527 1526 1525 1524 1523 1522 1521 1520 1519 1518 1518 1517 1517 1516 1516 1515 1515 1514 1513 1513 1512 1511 1510 1509 1507 1505 1503 1501 1499 1499 1498 1497 1497 1499 1499 1498 1498 1498 1497 1497 1497 1497 1496 1497 1497 1497 1498 1498 1498 1499 1499 1500 1500 1500 1499 1500 1500 1501 1502 1503 1504 1505 1505 1507
1514 1515 1516 1517 1518 1520 1521 1522 1523 1524 1525 1525 1526 1526 1526 1526 1526 1526 1526 1526 1525 1524 1524 1523 1522 1521 1520 1519 1518 1517 1516 1515 1515 1514 1513 1513 1512 1511 1511 1510 1509 1509 1507 1506 1506 1504 1503 1501 1499 1497 1496 1495 1494 1494 1494 1495 1495 1495 1495 1494 1494 1494 1494 1493 1493 1493 1493 1494 1494 1494 1495 1495 1496 1496 1497 1496 1496 1497 1498 1498 1499 1500 1501 1502 1503
1509 1510 1511 1513 1515 1516 1517 1519 1520 1521 1522 1523 1523 1524 1524 1524 1524 1524 1523 1523 1522 1522 1521 1520 1519 1518 1517 1516 1516 1515 1514 1513 1512 1512 1511 1510 1509 1508 1507 1507 1506 1505 1504 1503 1502 1501 1500 1498 1497 1495 1494 1493 1492 1491 1491 1491 1491 1492 1492 1492 1490 1490 1491 1490 1490 1490 1489 1490 1490 1490 1491 1491 1492 1493 1493 1493 1493 1493 1494 1494 1495 1496 1497 1498 1499
1504 1505 1506 1508 1510 1513 1514 1515 1517 1518 1519 1520 1521 1521 1521 1521 1521 1521 1520 1520 1519 1518 1518 1517 1516 1515 1514 1514 1513 1512 1511 1510 1509 1509 1508 1507 1506 1504 1504 1503 1502 1501 1501 1500 1499 1498 1497 1495 1494 1492 1491 1490 1490 1489 1489 1488 1488 1488 1488 1488 1487 1487 1487 1486 1486 1486 1486 1486 1486 1487 1487 1487 1488 1489 1489 1489 1490 1490 1490 1491 1491 1492 1494 1494 1495
1499 1500 1502 1506 1508 1509 1511 1512 1514 1515 1516 1517 1518 1518 1518 1518 1518 1518 1517 1516 1516 1515 1514 1514 1513 1512 1511 1511 1510 1509 1508 1507 1506 1505 1504 1503 1502 1501 1500 1499 1498 1497 1496 1495 1495 1494 1493 1492 1490 1489 1488 1486 1486 1486 1486 1485 1485 1484 1484 1484 1484 1483 1483 1482 1482 1483 1483 1482 1482 1483 1483 1484 1485 1485 1485 1485 1485 1486 1486 1487 1487 1488 1489 1490 1491
1498 1499 1501 1505 1506 1506 1508 1509 1510 1511 1512 1513 1514 1515 1515 1515 1515 1515 1514 1513 1513 1512 1511 1511 1510 1509 1508 1507 1507 1506 1505 1504 1502 1501 1500 1499 1497 1496 1495 1494 1494 1493 1491 1490 1489 1489 1489 1488 1486 1486 1484 1483 1483 1483 1482 1482 1482 1481 1480 1480 1480 1480 1480 1479 1479 1480 1480 1479 1479 1479 1479 1480 1481 1481 1481 1481 1481 1481 1482 1482 1483 1484 1485 1486 1487
1496 1497 1498 1501 1503 1504 1505 1506 1507 1508 1508 1508 1509 1510 1511 1511 1511 1511 1511 1511 1510 1509 1508 1507 1506 1505 1504 1504 1503 1502 1501 1500 1498 1497 1495 1494 1492 1491 1490 1489 1488 1487 1486 1485 1484 1484 1483 1483 1481 1481 1480 1479 1479 1479 1479 1478 1478 1478 1477 1477 1477 1477 1477 1476 1476 1477 1477 1476 1475 1475 1475 1476 1477 1477 1477 1477 1477 1478 1478 1479 1479 1480 1480 1481 1482
1491 1493 1495 1497 1499 1501 1502 1503 1504 1505 1505 1505 1505 1506 1507 1507 1507 1508 1508 1508 1507 1507 1505 1504 1503 1502 1501 1500 1499 1498 1497 1496 1495 1493 1491 1489 1487 1486 1484 1483 1482 1481 1480 1480 1479 1478 1478 1477 1476 1475 1475 1475 1474 1474 1475 1475 1474 1474 1473 1473 1473 1473 1473 1472 1472 1473 1473 1472 1472 1472 1471 1472 1472 1473 1473 1473 1473 1474 1475 1475 1476 1476 1476 1477 1477
1487 1489 1491 1492 1495 1497 1499 1500 1501 1502 1503 1502 1502 1503 1503 1504 1504 1505 1505 1505 1504 1503 1502 1500 1499 1498 1497 1496 1495 1494 1493 1492 1491 1489 1487 1485 1482 1480 1479 1477 1476 1476 1475 1473 1473 1472 1472 1471 1469 1468 1469 1471 1470 1469 1470 1470 1469 1469 1469 1469 1470 1469 1468 1468 1468 1468 1467 1467 1469 1469 1468 1468 1469 1468 1469 1470 1469 1470 1471 1472 1472 1473 1473 1473 1473
1484 1485 1487 1489 1492 1495 1496 1498 1499 1500 1500 1500 1500 1500 1501 1501 1501 1502 1502 1502 1501 1500 1499 1497 1496 1495 1494 1493 1492 1490 1489 1488 1487 1486 1483 1481 1478 1475 1473 1472 1471 1470 1469 1468 1468 1467 1466 1466 1464 1463 1464 1465 1465 1465 1465 1465 1464 1464 1464 1464 1464 1464 1463 1462 1462 1462 1462 1463 1465 1465 1464 1464 1465 1464 1465 1465 1465 1466 1467 1468 1469 1470 1470 1470 1470
1482 1484 1485 1487 1490 1492 1494 1496 1498 1498 1498 1498 1498 1498 1499 1499 1499 1499 1499 1499 1498 1496 1495 1494 1493 1492 1491 1490 1488 1487 1485 1483 1482 1481 1479 1476 1473 1470 1467 1466 1464 1463 1462 1462 1462 1461 1461 1460 1459 1458 1458 1459 1459 1459 1459 1460 1459 1460 1460 1459 1458 1460 1459 1457 1455 1456 1458 1459 1460 1461 1460 1460 1461 1461 1461 1460 1460 1462 1463 1464 1465 1466 1467 1467 1467
1480 1481 1483 1485 1487 1489 1491 1494 1495 1496 1495 1496 1496 1496 1497 1497 1497 1497 1496 1495 1494 1493 1491 1490 1490 1488 1487 1486 1485 1483 1481 1479 1477 1476 1474 1472 1468 1465 1462 1460 1459 1457 1456 1456 1455 1454 1453 1452 1452 1451 1451 1451 1452 1452 1453 1453 1453 1455 1456 1453 1453 1456 1455 1452 1450 1451 1453 1454 1455 1457 1456 1456 1457 1458 1457 1456 1456 1457 1458 1459 1461 1462 1463 1464 1464
1477 1479 1481 1483 1484 1487 1490 1492 1493 1493 1493 1494 1495 1495 1495 1495 1495 1494 1493 1492 1490 1489 1487 1487 1485 1484 1482 1481 1480 1479 1476 1475 1473 1471 1469 1467 1464 1460 1458 1456 1453 1452 1451 1451 1449 1448 1447 1446 1445 1445 1444 1444 1444 1444 1445 1446 1447 1449 1449 1446 1449 1451 1449 1447 1448 1448 1448 1448 1450 1452 1453 1452 1453 1455 1455 1453 1452 1452 1454 1455 1456 1458 1460 1460 1460
1475 1478 1480 1482 1484 1487 1489 1490 1491 1491 1492 1493 1493 1493 1494 1493 1493 1492 1491 1489 1487 1485 1484 1483 1481 1479 1478 1476 1474 1473 1470 1469 1467 1465 1464 1462 1459 1456 1453 1451 1448 1446 1446 1445 1444 1443 1442 1441 1440 1440 1439 1439 1438 1438 1438 1439 1440 1441 1441 1441 1443 1444 1442 1442 1444 1444 1442 1442 1444 1447 1449 1449 1450 1451 1452 1451 1450 1449 1450 1451 1453 1454 1456 1456 1456